Location: Newark
(44.3681°N, 100.3364°W)
Time: 12:52:45
(UTC+00:00)

Explorer 7 - Pass Details

Date: 25 February 2020
Orbit: 485 x 679 km, 50.3° (Epoch: 29 March)

Event Time Altitude Azimuth Distance (km) Brightness Sun altitude
Rises 23:09:16 0° 296° (WNW) 2,816 11.0 11.7°
Reaches altitude 10° 23:11:38 10° 293° (WNW) 1,878 10.3 11.3°
Maximum altitude 23:15:50 58° 214° (SW) 640 7.8 10.7°
Drops below altitude 10° 23:19:45 10° 135° (SE) 1,756 9.2 10.0°
Sets 23:21:54 0° 132° (SE) 2,614 10.0 9.7°
